Morristown, NJ

5:10 PM EDT on June 21, 2018 (GMT -0400)
Morristown Municipal

Weather History for KMMU - October, 2017

Change the Weather History Date:

Tuesday, October 24, 2017

  Actual Average Record
Temperature  
Mean Temperature 68 °F -  
Max Temperature 75 °F 64 °F 82 °F (2001)
Min Temperature 62 °F 37 °F 19 °F (1969)
Cooling Degree Days 4    
Growing Degree Days 18 (Base 50)    
Moisture  
Dew Point 66 °F    
Average Humidity 88    
Maximum Humidity 100    
Minimum Humidity 69    
Precipitation  
Precipitation 0.04 in - - ()
Sea Level Pressure  
Sea Level Pressure 29.82 in    
Wind  
Wind Speed 7 mph (South)    
Max Wind Speed 17 mph    
Max Gust Speed 28 mph    
Visibility 8 miles    
Events Rain    
Averages and records for this station are not official NWS values.
T = Trace of Precipitation, MM = Missing Value Source: NWS Daily Summary

Daily Weather History Graph

Daily Weather History Graph

Search for Another Location

Airport or City:

Astronomy

Oct. 24, 2017 Rise Set
Actual Time 7:19 AM EDT 6:03 PM EDT
Civil Twilight 6:51 AM EDT 6:31 PM EDT
Nautical Twilight 6:19 AM EDT 7:03 PM EDT
Astronomical Twilight 5:47 AM EDT 7:35 PM EDT
Moon 11:37 AM EDT (10/24) 9:34 PM EDT (10/24)
Length of Visible Light 11h 40m
Length of Day
10h 44m
Waxing Crescent, 21% of the Moon is Illuminated
Oct 24
Waxing Crescent
Oct 27
First Quarter
Nov 4
Full
Nov 10
Last Quarter
Nov 18
New

Hourly Weather History & Observations

Time (EDT) Temp. Dew Point Humidity Pressure Visibility Wind Dir Wind Speed Gust Speed Precip Events Conditions
12:15 AM 68.0 °F 64.4 °F 88% 29.96 in 10.0 mi SE 5.8 mph - N/A   Overcast
12:35 AM 68.0 °F 66.2 °F 94% 29.96 in 10.0 mi SE 5.8 mph - N/A   Overcast
12:55 AM 68.0 °F 66.2 °F 94% 29.96 in 10.0 mi SSE 5.8 mph - N/A   Overcast
1:15 AM 68.0 °F 66.2 °F 94% 29.96 in 10.0 mi SE 3.5 mph - N/A   Overcast
1:35 AM 68.0 °F 66.2 °F 94% 29.96 in 10.0 mi SSE 4.6 mph - N/A   Overcast
1:55 AM 69.8 °F 66.2 °F 88% 29.95 in 10.0 mi SE 3.5 mph - N/A   Overcast
2:15 AM 69.8 °F 66.2 °F 88% 29.94 in 10.0 mi SSE 4.6 mph - N/A   Overcast
2:35 AM 69.8 °F 66.2 °F 88% 29.92 in 10.0 mi SE 4.6 mph - N/A   Overcast
2:55 AM 69.8 °F 66.2 °F 88% 29.89 in 10.0 mi ESE 3.5 mph - N/A   Overcast
3:15 AM 69.8 °F 66.2 °F 88% 29.87 in 10.0 mi SE 5.8 mph - N/A   Overcast
3:35 AM 69.8 °F 66.2 °F 88% 29.84 in 10.0 mi ESE 9.2 mph - N/A   Overcast
3:55 AM 69.8 °F 66.2 °F 88% 29.86 in 10.0 mi SSE 8.1 mph 19.6 mph N/A   Overcast
4:15 AM 69.8 °F 66.2 °F 88% 29.85 in 10.0 mi SSE 5.8 mph - N/A   Overcast
4:35 AM 69.8 °F 66.2 °F 88% 29.85 in 10.0 mi SSE 5.8 mph - N/A   Overcast
4:55 AM 69.8 °F 66.2 °F 88% 29.85 in 10.0 mi SSE 5.8 mph - N/A   Overcast
5:15 AM 68.0 °F 66.2 °F 94% 29.84 in 5.0 mi SSE 5.8 mph - 0.02 in Rain Heavy Rain
5:35 AM 68.0 °F 66.2 °F 94% 29.84 in 5.0 mi SSE 3.5 mph - 0.04 in Rain Light Rain
5:55 AM 68.0 °F 66.2 °F 94% 29.83 in 10.0 mi SSE 4.6 mph - N/A   Overcast
6:15 AM 68.0 °F 66.2 °F 94% 29.82 in 10.0 mi SE 5.8 mph - N/A   Overcast
6:35 AM 69.8 °F 66.2 °F 88% 29.82 in 10.0 mi SSE 8.1 mph - N/A Rain Light Rain
6:45 AM 69.8 °F 66.2 °F 88% 29.82 in 10.0 mi South 17.3 mph 23.0 mph N/A   Overcast
6:46 AM 69.8 °F 66.2 °F 88% 29.82 in 10.0 mi South 17.3 mph 23.0 mph N/A Rain Light Rain
7:45 AM 69.8 °F 64.4 °F 83% 29.83 in 10.0 mi South 12.7 mph 23.0 mph N/A Rain Light Rain
8:38 AM 69.8 °F 66.2 °F 88% 29.82 in 2.0 mi South 12.7 mph 25.3 mph N/A Rain Light Rain
8:59 AM 69.8 °F 68.0 °F 94% 29.82 in 2.0 mi South 10.4 mph 18.4 mph N/A Rain Rain
9:45 AM 71.6 °F 68.0 °F 88% 29.80 in 4.0 mi South 12.7 mph 23.0 mph N/A Rain Light Rain
10:45 AM 73.4 °F 66.2 °F 78% 29.78 in 4.0 mi South 16.1 mph 25.3 mph N/A   Overcast
11:45 AM 75.2 °F 66.2 °F 73% 29.76 in 4.0 mi South 13.8 mph 24.2 mph N/A   Overcast
11:46 AM 75.2 °F 66.2 °F 73% 29.76 in 4.0 mi South 13.8 mph 24.2 mph N/A Rain Rain
12:16 PM 71.6 °F 68.0 °F 88% 29.75 in 1.0 mi South 17.3 mph 27.6 mph N/A Rain Heavy Rain
12:45 PM 69.8 °F 68.0 °F 94% 29.76 in 2.0 mi SSW 17.3 mph 21.9 mph N/A Rain Rain
1:45 PM 71.6 °F 68.0 °F 88% 29.76 in 7.0 mi SW 16.1 mph 25.3 mph N/A   Overcast
2:45 PM 73.4 °F 68.0 °F 83% 29.75 in 10.0 mi SSW 11.5 mph 21.9 mph N/A   Mostly Cloudy
3:45 PM 73.4 °F 64.4 °F 73% 29.75 in 10.0 mi SSW 13.8 mph 19.6 mph N/A   Overcast
3:46 PM 73.4 °F 64.4 °F 73% 29.75 in 10.0 mi SSW 13.8 mph 19.6 mph N/A   Overcast
4:45 PM 71.6 °F 64.4 °F 78% 29.76 in 10.0 mi South 6.9 mph 15.0 mph N/A   Mostly Cloudy
4:55 PM 73.4 °F 62.6 °F 69% 29.76 in 10.0 mi SSW 15.0 mph 25.3 mph N/A   Mostly Cloudy
5:45 PM 71.6 °F 64.4 °F 78% 29.76 in 10.0 mi South 6.9 mph 15.0 mph N/A   Mostly Cloudy
6:45 PM 69.8 °F 64.4 °F 83% 29.77 in 10.0 mi SSW 5.8 mph - N/A   Mostly Cloudy
6:46 PM 69.8 °F 64.4 °F 83% 29.77 in 10.0 mi SSW 5.8 mph - N/A   Mostly Cloudy
7:45 PM 68.0 °F 64.4 °F 88% 29.77 in 10.0 mi SSW 3.5 mph - N/A   Mostly Cloudy
8:45 PM 66.2 °F 64.4 °F 94% 29.76 in 10.0 mi South 3.5 mph - N/A   Mostly Cloudy
9:45 PM 62.6 °F 62.6 °F 100% 29.78 in 10.0 mi Calm Calm - N/A   Mostly Cloudy
10:35 PM 62.6 °F 62.6 °F 100% 29.76 in 5.0 mi Calm Calm - N/A   Overcast
10:55 PM 62.6 °F 62.6 °F 100% 29.76 in 7.0 mi Calm Calm - N/A   Overcast
11:15 PM 62.6 °F 62.6 °F 100% 29.76 in 5.0 mi Calm Calm - N/A   Overcast
11:35 PM 64.4 °F 64.4 °F 100% 29.76 in 7.0 mi WSW 4.6 mph - N/A   Overcast
11:55 PM 64.4 °F 64.4 °F 100% 29.75 in 10.0 mi Calm Calm - N/A   Scattered Clouds